W1HAF-2 Waterford EOC CT US current weather conditions

sailwx.info

Wind from 009

Air temperature -8.9° C
Dewpoint -15.8° C

Last reported at 2020-Jan-21 06:04 UTC.
Time now 2020-Jan-21 06:25 UTC

Location: N 41°21' W 072°08'.
View on Google Maps.

See reports from other nearby stations

  
Tides and Currents Weather Stations Pressure Air Temp Water Temp Dewpoint Dewpoint Depression Visibility Wind Speed Wind Dir Waves Ship Positions
date/time (UTC)wind fromknots sea level pressurealtimeterstation pressurevisibilityair tempwater tempwave heightnotes
2020-Jan-21 06:04 009 -8.9
2020-Jan-21 05:54 011 -8.3
2020-Jan-21 05:44 342 -8.3
2020-Jan-21 05:34 321 -8.3
2020-Jan-21 05:24 267 -8.3
2020-Jan-21 05:14 313 -8.3
2020-Jan-21 05:04 313 -8.3
2020-Jan-21 04:54 313 -7.8
2020-Jan-21 04:44 314 -7.8
2020-Jan-21 04:34 245 -7.8
2020-Jan-21 04:24 052 -7.2
2020-Jan-21 04:14 204 -7.2
2020-Jan-21 04:04 297 -7.2
2020-Jan-21 03:54 243 -7.2
2020-Jan-21 03:44 261 -7.2
2020-Jan-21 03:34 311 -7.2
2020-Jan-21 03:24 338 -7.2
2020-Jan-21 03:14 039 -6.7
2020-Jan-21 03:04 350 0 gusting 2 -6.7
2020-Jan-21 02:54 323 0 gusting 1 -6.7
2020-Jan-21 02:44 327 -6.7
2020-Jan-21 02:35 335 -6.7
2020-Jan-21 02:24 282 -6.7
2020-Jan-21 02:14 342 0 gusting 3 -6.1
2020-Jan-21 02:05 051 -6.1
2020-Jan-21 01:54 001 0 gusting 2 -6.1
2020-Jan-21 01:44 312 -6.1
2020-Jan-21 01:34 065 -5.6
2020-Jan-21 01:24 098 -5.6
2020-Jan-21 01:14 313 -5.6
2020-Jan-21 01:04 308 -5.6
2020-Jan-21 00:54 257 -5.6
2020-Jan-21 00:44 301 -5.6
2020-Jan-21 00:34 269 -5.0
2020-Jan-21 00:24 221 -5.0
2020-Jan-21 00:14 077 0 gusting 1 -5.0
2020-Jan-21 00:04 313 -4.4
2020-Jan-20 23:54 341 -4.4
2020-Jan-20 23:44 334 0 gusting 4 -4.4
2020-Jan-20 23:34 330 -4.4
2020-Jan-20 23:24 339 0 gusting 3 -3.9
2020-Jan-20 23:14 329 -3.9
2020-Jan-20 23:04 336 -3.9
2020-Jan-20 22:54 032 -3.9
2020-Jan-20 22:44 338 -3.9
2020-Jan-20 22:34 349 -3.9
2020-Jan-20 22:24 349 -3.3
2020-Jan-20 22:14 323 -3.3
2020-Jan-20 22:05 007 -3.3
2020-Jan-20 21:54 325 0 gusting 3 -2.8
2020-Jan-20 21:44 331 1 gusting 5 -2.8
2020-Jan-20 21:34 328 0 gusting 6 -2.8
2020-Jan-20 21:24 316 0 gusting 7 -2.2
2020-Jan-20 21:14 356 1 gusting 8 -2.2
2020-Jan-20 21:04 071 0 gusting 3 -2.2
2020-Jan-20 20:54 354 1 gusting 5 -1.7
2020-Jan-20 20:44 349 0 gusting 6 -1.7
2020-Jan-20 20:34 236 1 gusting 8 -1.7
2020-Jan-20 20:25 327 0 gusting 4 -1.7
2020-Jan-20 20:14 127 0 gusting 3 -1.7
2020-Jan-20 20:04 335 1 gusting 7 -1.7
2020-Jan-20 19:54 178 0 gusting 8 -1.7
2020-Jan-20 19:45 326 1 gusting 6 -1.7
2020-Jan-20 19:34 319 3 gusting 12 -1.7
2020-Jan-20 19:24 345 0 gusting 8 -1.7
2020-Jan-20 19:14 326 3 gusting 10 -2.2
2020-Jan-20 19:04 351 1 gusting 6 -2.2
2020-Jan-20 18:54 348 2 gusting 8 -2.2
2020-Jan-20 18:44 297 2 gusting 6 -2.2
2020-Jan-20 18:34 347 2 gusting 10 -2.2
2020-Jan-20 18:24 002 3 gusting 11 -2.2
2020-Jan-20 18:14 038 2 gusting 9 -2.8
2020-Jan-20 18:04 337 6 gusting 10 -2.8
2020-Jan-20 17:55 345 4 gusting 7 -2.2
2020-Jan-20 17:44 359 2 gusting 12 -2.8
2020-Jan-20 17:34 352 1 gusting 11 -2.8
2020-Jan-20 17:24 319 3 gusting 13 -2.8
2020-Jan-20 17:14 002 3 gusting 12 -3.3
2020-Jan-20 17:04 110 6 gusting 13 -3.3
2020-Jan-20 16:54 003 2 gusting 15 -3.3
2020-Jan-20 16:44 050 1 gusting 6 -3.3
2020-Jan-20 16:24 333 4 gusting 10 -3.3
2020-Jan-20 16:14 328 1 gusting 6 -3.3
2020-Jan-20 16:04 347 0 gusting 5 -3.9
2020-Jan-20 15:54 276 1 gusting 13 -4.4
2020-Jan-20 15:44 318 4 gusting 16 -5.0
2020-Jan-20 15:34 321 3 gusting 10 -4.4
2020-Jan-20 15:24 217 1 gusting 7 -4.4
2020-Jan-20 15:14 306 1 gusting 11 -5.0
2020-Jan-20 15:04 337 1 gusting 14 -5.0
2020-Jan-20 14:54 333 4 gusting 13 -5.6
2020-Jan-20 14:44 323 2 gusting 12 -5.6
2020-Jan-20 14:34 329 1 gusting 11 -5.6
2020-Jan-20 14:25 344 4 gusting 8 -6.1
2020-Jan-20 14:14 023 1 gusting 6 -6.1
2020-Jan-20 14:05 300 3 gusting 10 -6.1
2020-Jan-20 13:54 267 1 gusting 7 -6.7
2020-Jan-20 13:44 064 1 gusting 6 -6.7
2020-Jan-20 13:34 007 1 gusting 4 -7.2
2020-Jan-20 13:24 333 0 gusting 8 -7.2
2020-Jan-20 13:14 326 0 gusting 6 -7.2
2020-Jan-20 13:04 080 -7.8
2020-Jan-20 12:55 337 1 gusting 4 -7.8
2020-Jan-20 12:44 019 -7.8
2020-Jan-20 12:34 053 -7.8
2020-Jan-20 12:24 030 0 gusting 5 -7.8
2020-Jan-20 12:14 039 0 gusting 5 -7.8
2020-Jan-20 12:04 034 0 gusting 2 -7.8
2020-Jan-20 11:54 333 1 gusting 6 -7.8
2020-Jan-20 11:44 286 0 gusting 8 -7.8
2020-Jan-20 11:34 026 0 gusting 6 -7.8
2020-Jan-20 11:24 308 0 gusting 6 -7.8
2020-Jan-20 11:14 169 1 gusting 6 -7.8
2020-Jan-20 11:04 334 -7.8
2020-Jan-20 10:54 321 1 gusting 6 -7.2
2020-Jan-20 10:44 340 1 gusting 8 -7.2
2020-Jan-20 10:34 350 -7.2
2020-Jan-20 10:25 025 1 gusting 6 -7.2
2020-Jan-20 10:14 274 0 gusting 4 -7.2
2020-Jan-20 10:04 028 -7.2
2020-Jan-20 09:54 359 0 gusting 6 -7.2
2020-Jan-20 09:44 314 -7.2
2020-Jan-20 09:34 210 0 gusting 6 -7.2
2020-Jan-20 09:24 322 1 gusting 10 -7.2
2020-Jan-20 09:14 268 2 gusting 7 -6.7
2020-Jan-20 09:04 311 3 gusting 12 -6.7
2020-Jan-20 08:54 295 3 gusting 11 -6.7
2020-Jan-20 08:44 333 1 gusting 5 -6.7
2020-Jan-20 08:34 327 0 gusting 5 -6.1
2020-Jan-20 08:24 299 1 gusting 10 -6.1
2020-Jan-20 08:14 336 0 gusting 5 -6.1
2020-Jan-20 08:04 039 0 gusting 3 -5.6
2020-Jan-20 07:54 335 0 gusting 4 -5.6
2020-Jan-20 07:44 089 0 gusting 10 -5.6
2020-Jan-20 07:34 314 0 gusting 6 -5.6
2020-Jan-20 07:25 239 0 gusting 3 -5.6
2020-Jan-20 07:14 086 0 gusting 3 -5.0
2020-Jan-20 07:04 348 0 gusting 7 -5.0
2020-Jan-20 06:54 233 -5.0
2020-Jan-20 06:44 086 0 gusting 6 -4.4
2020-Jan-20 06:34 307 2 gusting 8 -4.4
2020-Jan-20 06:24 011 1 gusting 6 -4.4
2020-Jan-20 06:14 288 3 gusting 6 -4.4
2020-Jan-20 06:04 020 2 gusting 8 -4.4
2020-Jan-20 05:54 335 2 gusting 5 -3.9
2020-Jan-20 05:44 345 1 gusting 5 -3.9
2020-Jan-20 05:34 013 1 gusting 7 -3.9
2020-Jan-20 05:24 307 2 gusting 6 -3.3
2020-Jan-20 05:14 179 1 gusting 8 -3.3
2020-Jan-20 05:04 300 0 gusting 7 -2.8
2020-Jan-20 04:54 239 0 gusting 6 -2.8
2020-Jan-20 04:44 304 0 gusting 9 -2.8
2020-Jan-20 04:34 330 1 gusting 10 -2.2
2020-Jan-20 04:24 300 0 gusting 7 -1.7
2020-Jan-20 04:14 333 1 gusting 10 -1.7
2020-Jan-20 04:04 092 1 gusting 10 -1.1
2020-Jan-20 03:54 302 2 gusting 9 -1.1
2020-Jan-20 03:44 023 0 gusting 4 -0.6
2020-Jan-20 03:34 304 1 gusting 6 -0.6
2020-Jan-20 03:24 322 0 gusting 6 -0.0
2020-Jan-20 03:15 304 1 gusting 8 -0.0
2020-Jan-20 03:04 343 0 gusting 5 0.6
2020-Jan-20 02:54 335 0 gusting 4 0.6
2020-Jan-20 02:44 006 0 gusting 3 0.6
2020-Jan-20 02:34 351 0.6
2020-Jan-20 02:24 299 1 gusting 6 1.1
2020-Jan-20 02:14 330 3 gusting 10 1.1
2020-Jan-20 02:04 239 1.1
2020-Jan-20 01:54 077 0 gusting 5 1.1
2020-Jan-20 01:44 334 1.1
2020-Jan-20 01:34 029 0 gusting 2 1.1
2020-Jan-20 01:24 318 1.1
2020-Jan-20 01:14 223 0.6
2020-Jan-20 01:04 352 0.6
2020-Jan-20 00:54 028 1.1
2020-Jan-20 00:44 350 1.1
2020-Jan-20 00:34 315 0 gusting 2 1.1
2020-Jan-20 00:24 317 1.1
2020-Jan-20 00:14 351 1.7
2020-Jan-20 00:04 030 1.7
2020-Jan-19 23:54 334 0 gusting 2 1.7
2020-Jan-19 23:44 359 2.2
2020-Jan-19 23:34 319 2.2
2020-Jan-19 23:24 336 2.8
2020-Jan-19 23:14 321 2.8
2020-Jan-19 23:04 332 3.3
2020-Jan-19 22:54 331 0 gusting 2 3.3
2020-Jan-19 22:44 340 0 gusting 9 3.3
2020-Jan-19 22:34 290 0 gusting 5 3.9
2020-Jan-19 22:24 316 3.9
2020-Jan-19 22:14 330 0 gusting 2 3.9
2020-Jan-19 22:04 304 0 gusting 3 4.4
2020-Jan-19 21:54 240 0 gusting 4 4.4
2020-Jan-19 21:44 239 4.4
2020-Jan-19 21:34 001 0 gusting 6 4.4
2020-Jan-19 21:24 027 5.0
2020-Jan-19 21:14 329 0 gusting 3 5.0
2020-Jan-19 21:04 321 0 gusting 2 5.0
2020-Jan-19 20:54 326 5.0
2020-Jan-19 20:44 293 5.0
2020-Jan-19 20:34 348 5.0
2020-Jan-19 20:24 289 1 gusting 6 5.6
2020-Jan-19 20:14 359 5.6
2020-Jan-19 20:04 101 0 gusting 6 5.6
2020-Jan-19 19:54 008 1 gusting 4 5.6
2020-Jan-19 19:44 212 0 gusting 6 6.1
2020-Jan-19 19:34 327 0 gusting 4 5.6
2020-Jan-19 19:24 219 0 gusting 3 5.6
2020-Jan-19 19:14 342 0 gusting 3 5.6
2020-Jan-19 19:04 335 1 gusting 6 5.6
2020-Jan-19 18:54 257 0 gusting 3 5.6
2020-Jan-19 18:44 011 0 gusting 3 5.6
2020-Jan-19 18:34 333 0 gusting 8 5.6
2020-Jan-19 18:24 321 0 gusting 7 5.6
2020-Jan-19 18:14 008 0 gusting 5 5.6
2020-Jan-19 18:04 347 5.6
2020-Jan-19 17:54 306 1 gusting 6 6.1
2020-Jan-19 17:44 335 0 gusting 9 6.7
2020-Jan-19 17:34 195 1 gusting 7 7.8
2020-Jan-19 17:24 288 0 gusting 13 7.2
2020-Jan-19 17:14 358 1 gusting 9 7.2
2020-Jan-19 17:04 044 4 gusting 9 7.2
2020-Jan-19 16:54 253 2 gusting 6 7.2
2020-Jan-19 16:44 351 0 gusting 6 7.2
2020-Jan-19 16:34 335 1 gusting 7 7.2
2020-Jan-19 16:24 231 0 gusting 8 7.2
2020-Jan-19 16:14 230 1 gusting 12 6.7
2020-Jan-19 16:04 282 2 gusting 8 6.7
2020-Jan-19 15:54 090 0 gusting 8 6.7
2020-Jan-19 15:44 208 0 gusting 6 6.7
2020-Jan-19 15:34 236 0 gusting 5 6.1
2020-Jan-19 15:24 289 0 gusting 5 5.6
2020-Jan-19 15:14 319 1 gusting 6 5.0
2020-Jan-19 15:04 231 1 gusting 4 5.0
2020-Jan-19 14:54 290 4.4
2020-Jan-19 14:44 027 3.9
2020-Jan-19 14:34 216 0 gusting 5 3.3
2020-Jan-19 14:24 175 0 gusting 3 3.3
2020-Jan-19 14:14 276 0 gusting 3 2.8
2020-Jan-19 14:04 231 0 gusting 3 2.2
2020-Jan-19 13:54 236 0 gusting 3 2.2
2020-Jan-19 13:44 234 1.7
2020-Jan-19 13:34 216 1.1
2020-Jan-19 13:24 216 1.1
2020-Jan-19 13:14 234 1.1
2020-Jan-19 13:04 234 1.7
2020-Jan-19 12:54 270 1.7
2020-Jan-19 12:44 235 1.7
2020-Jan-19 12:34 235 1.7
2020-Jan-19 12:24 270 1.7
2020-Jan-19 12:14 266 2.2
2020-Jan-19 12:04 214 0 gusting 3 2.2
2020-Jan-19 11:54 174 0 gusting 4 2.2
2020-Jan-19 11:44 276 1 gusting 6 2.2
2020-Jan-19 11:34 274 0 gusting 5 2.2
2020-Jan-19 11:24 229 1 gusting 5 2.2
2020-Jan-19 11:14 262 0 gusting 5 2.2
2020-Jan-19 11:04 242 0 gusting 5 2.2
2020-Jan-19 10:54 304 2 gusting 5 2.2
2020-Jan-19 10:44 239 0 gusting 3 2.2
2020-Jan-19 10:34 239 2.2
2020-Jan-19 10:24 250 0 gusting 3 2.2
2020-Jan-19 10:14 234 0 gusting 4 2.2
2020-Jan-19 10:04 195 2.8
2020-Jan-19 09:54 238 2.8
2020-Jan-19 09:44 063 2.8
2020-Jan-19 09:34 255 2 gusting 6 2.8
2020-Jan-19 09:24 309 1 gusting 5 2.8
2020-Jan-19 09:14 197 1 gusting 6 2.8
2020-Jan-19 09:05 254 2.8
2020-Jan-19 08:54 195 2.8
2020-Jan-19 08:44 233 1 gusting 4 2.8
2020-Jan-19 08:34 287 0 gusting 4 2.8
2020-Jan-19 08:24 284 0 gusting 5 2.8
2020-Jan-19 08:14 231 4 gusting 9 2.8
2020-Jan-19 08:04 238 0 gusting 3 2.8
2020-Jan-19 07:54 276 2.8
2020-Jan-19 07:44 226 0 gusting 6 2.8
2020-Jan-19 07:34 250 1 gusting 5 2.8
2020-Jan-19 07:24 221 2 gusting 7 3.3
2020-Jan-19 07:14 215 2 gusting 10 3.3
2020-Jan-19 07:04 244 0 gusting 9 3.3
2020-Jan-19 06:54 232 2 gusting 10 3.3
2020-Jan-19 06:44 261 1 gusting 5 3.3
2020-Jan-19 06:34 212 2 gusting 7 3.3
2020-Jan-19 06:24 253 2 gusting 6 3.3
2020-Jan-19 06:14 245 0 gusting 8 3.3
2020-Jan-19 06:04 267 2 gusting 6 2.8